Regional Weather Roundup
Issued by NWS Northern Indiana

Home | Current Version | Previous Version | Graphics & Text | Print | Product List | Glossary Off
Versions: 1 2 3 4 5 6 7 8 9 10 11 12 13 14 15 16 17 18 19 20 21 22 23 24 25 26 27 28 29 30 31 32 33 34 35 36 37 38 39 40 41 42 43 44 45 46 47 48 49 50

634
ASUS43 KIWX 280710
RWRIWX

KIWX WEATHER ROUNDUP
NATIONAL WEATHER SERVICE NORTHERN INDIANA
300 AM EDT WED SEP 28 2016

NOTE: "FAIR" INDICATES FEW OR NO CLOUDS BELOW 12,000 FEET WITH NO
SIGNIFICANT WEATHER AND/OR OBSTRUCTIONS TO VISIBILITY.

* THESE STATIONS ARE NOT UNDER NWS QUALITY CONTROL. THEY ALSO MAY NOT
  REPORT WEATHER SUCH AS PRECIPITATION OR FOG.

INZ001>027-280800-
NORTHERN INDIANA

CITY           SKY/WX    TMP DP  RH WIND       PRES   REMARKS
GARY*          MOCLDY    57  47  67 E6        29.78R
VALPARAISO     CLOUDY    50  44  80 NE6       29.77S
MICHIGAN CITY* CLOUDY    52  46  82 MISG      29.78S
LAPORTE*       CLOUDY    54  50  87 NE3       29.78S
KNOX*          PTCLDY    48  30  49 E3        29.77S
SOUTH BEND     PTCLDY    51  48  89 NE6       29.79S
GOSHEN         CLOUDY    51  41  68 SE5       29.78S
MONTICELLO*    CLOUDY    56  40  56 CALM      29.76S
ROCHESTER*     CLOUDY    52  45  76 E5        29.78F
WARSAW*        PTCLDY    50  34  53 CALM      29.78F
ANGOLA*          N/A     46  34  61 CALM      29.80F
FORT WAYNE     CLOUDY    51  45  79 CALM      29.81R
HUNTINGTON*    CLOUDY    53  42  68 CALM      29.80S
PERU/GRISSOM   CLOUDY    53  44  71 SE6       29.76F
MARION*        CLOUDY    51  47  84 CALM      29.80F

$$
INZ028>050-280800-
CENTRAL INDIANA

CITY           SKY/WX    TMP DP  RH WIND       PRES   REMARKS
LAFAYETTE      CLOUDY    52  47  83 CALM      29.76F
MUNCIE*        CLOUDY    61  50  67 S6        29.81S
INDIANAPOLIS   CLOUDY    60  50  69 SW8       29.79F

$$
MIZ043>046-050>051-056>058-064>065-071>073-077>080-280800-
SOUTHWEST LOWER MICHIGAN

CITY           SKY/WX    TMP DP  RH WIND       PRES   REMARKS
BATTLE CREEK   PTCLDY    54  48  80 E6        29.81S
BENTON HARBOR  CLOUDY    54  49  83 E5        29.78F
COLDWATER*     CLOUDY    51  46  82 E6        29.80S
HILLSDALE*     CLOUDY    48  45  87 E5        29.81S
HOLLAND        CLOUDY    53  51  93 CALM      29.79F
GRAND RAPIDS   CLOUDY    51  48  89 S5        29.80S
KALAMAZOO      CLOUDY    53  47  79 E3        29.81R
STURGIS*       CLOUDY    53  45  74 E7        29.78S
THREE RIVERS*  FAIR      54  48  82 NE5       29.80R

$$
OHZ001>008-015>018-024>025-280800-
NORTHWEST OHIO

CITY           SKY/WX    TMP DP  RH WIND       PRES   REMARKS
WAUSEON*       FAIR      46  43  87 CALM      29.81F
DEFIANCE       PTCLDY    51  46  83 CALM      29.81S
FINDLAY        PTCLDY    54  47  77 S5        29.82R
TOLEDO EXPRESS PTCLDY    48  48 100 CALM      29.81S
TOLEDO METCALF PTCLDY    51  45  79 E5        29.83R
LIMA           CLOUDY    55  50  83 S8        29.83S

$$
AND FOR LAKE MICHIGAN COASTAL AND OPEN LAKE BUOY OBSERVATIONS

STATION/POSITION TEMP    WIND        PRES    VSBY  WAVE
                 AIR SEA DIR/SP/G                  HT/PER
                 (F)     (DEG/KT/KT) (MB)    (MI)  (FT/S)
CALUMET HARBOR    56     340/ 12/ 15 1008.0R
MICHIGAN CITY     55      60/  8/  9   N/A
BURNS HARBOR      56      90/  7/ 10 1008.5S
SAINT JOSEPH      55     100/  1/  3 1009.1
SOUTH LAKE BUOY   57 69  270/ 10/ 12 1008.3R         2/ 4
4 MI NW BRIDGMAN  57 66   80/ 12/ 14 1008.3          2/ 5
MICHIGAN CITY     59 67   90/ 14/ 17   N/A           2/ 3

$$
&&




USA.gov is the U.S. government's official web portal to all federal, state and local government web resources and services.